map of PSS home
Great Circle Mapper logo
PSS - Airport
Location
City:  Posadas, Argentina
ICAO / IATA:SARP / PSS

Details
Type:Airport (Aerodrome, Airfield)
Latitude:2723'09"S (-27.385838)
Longitude:5558'15"W (-55.970727)
Datum:WGS 1984
Elevation:430 ft (131 m)
Runways:1
Longest:7406 × 98 ft (2257 × 30 m), paved

Time
Time Zone:UTC-3
Local Time:

Weather
METAR:SARP 231700Z 23005KT 9999 FEW030 SCT200 32/14 Q1014
TAF:SARP 231100Z 2312/2412 07005KT CAVOK TX34/2318Z TN20/2409Z

Related Locations
Nearby:
Farthest:HYN: 12264 mi / 19737 km
Huangyan [Luqiao], Zhejiang, CN

Find:

   beyond  
but within

Other Information
Maps:
NOTAMs:
Links:
Sources:

  
flag of Argentina   

Sectional Chart

Flight Planning
at skyvector.com

Satellite Image

Google Maps Satellite View

 

Copyright © 2004-2014 Karl L. Swartz. All rights reserved.
The Great Circle Mapper name and logo are trademarks of the Great Circle Mapper.
All other trademarks mentioned herein belong to their respective owners.
Please see credits for attibutions and further copyright information.

  Follow gcmap on Facebook Follow gcmap on Twitter

hCard Microformat

Geo Microformat